Wind_Speed
25 25 25 26 26 26 27 27 29 27 27 25 25 26 26 26 27 26 27 28 29 29 29 30 30 30 31 32 32 33 33 33 33 33 33 34 34 35 36 36 36 37 38 38
26 26 26 26 26 26 27 28 28 28 27 26 27 28 28 27 28 28 28 28 29 30 30 31 30 30 31 32 32 33 33 33 33 33 33 34 34 34 35 36 36 36 37 37
27 27 27 27 25 26 27 27 28 29 28 28 29 29 28 28 28 28 28 29 29 29 30 31 32 32 32 32 33 33 33 34 33 33 34 34 34 35 35 35 36 37 38 37
26 26 27 26 26 26 27 28 28 28 28 28 29 30 29 29 30 30 29 30 30 30 30 31 32 32 32 32 32 33 34 34 34 33 34 34 34 35 35 35 36 37 37 37
26 26 26 24 24 25 27 27 27 27 27 28 29 30 29 29 30 31 30 30 31 31 31 31 31 31 32 32 32 32 33 33 33 33 33 34 34 35 35 35 35 36 36 35
25 26 25 23 23 25 26 27 26 27 27 27 28 29 28 29 30 30 30 31 31 31 31 31 31 31 31 32 32 32 32 33 32 33 33 34 34 34 34 34 35 36 36 36
26 27 26 24 24 25 26 26 26 27 27 27 28 27 27 29 29 30 30 30 30 30 31 31 31 31 31 31 31 31 32 32 33 33 33 34 34 34 34 34 35 35 36 35
25 26 25 24 24 25 25 25 26 26 26 26 26 27 27 27 27 28 28 28 28 28 29 29 29 30 30 30 30 30 30 31 31 32 32 32 33 33 34 34 34 34 34 35
26 25 25 25 25 26 25 25 25 25 25 25 25 26 27 27 27 28 28 28 28 28 28 28 28 29 29 29 29 29 30 30 30 31 31 32 32 34 34 34 34 33 33 33
25 25 25 25 26 25 25 24 24 24 24 24 25 25 25 26 26 26 27 28 28 28 28 28 28 28 29 29 29 29 29 30 30 30 30 31 32 33 33 33 33 32 32 32
24 24 24 24 24 24 24 24 24 24 24 24 24 25 25 25 25 25 26 27 27 28 28 28 28 28 28 29 29 29 29 29 29 30 30 31 32 32 32 31 31 31 31 31
24 24 24 23 23 23 23 24 24 24 23 23 24 24 24 24 24 24 25 25 26 27 27 27 27 27 27 28 28 28 28 28 28 28 29 30 30 31 30 30 30 30 31 31
24 24 24 23 23 22 22 22 23 23 23 23 23 24 24 23 23 23 23 23 24 24 25 25 26 26 27 26 26 27 27 27 27 28 28 28 29 29 30 30 30 30 30 30
24 23 23 23 23 23 23 23 23 23 23 23 23 23 23 23 22 21 21 22 21 22 22 24 25 25 26 26 26 26 26 26 27 27 28 28 28 29 29 30 30 30 29 29
22 23 22 22 23 23 23 22 22 23 23 23 22 22 22 22 21 20 20 20 21 21 21 22 23 24 25 26 26 26 25 25 25 26 27 27 28 29 29 29 30 30 29 29
21 22 22 22 22 21 21 21 21 21 21 21 20 20 21 21 21 21 20 20 21 21 21 22 22 23 24 24 25 25 25 25 25 26 26 27 27 28 28 28 28 29 29 28
20 20 20 21 21 21 21 21 21 20 20 19 19 20 20 20 20 20 20 20 21 21 21 21 22 22 23 23 24 25 25 25 26 26 26 27 26 26 27 27 27 28 28 28
18 18 18 19 19 19 20 20 20 19 19 19 19 19 20 20 20 20 20 21 21 21 21 21 22 22 23 23 23 24 25 26 26 26 27 27 26 26 26 26 26 27 27 27
18 18 18 18 19 19 18 18 19 18 19 19 19 19 20 20 20 20 20 21 21 20 20 21 22 22 22 23 24 24 25 26 26 26 26 26 26 25 25 25 25 26 26 27
18 18 18 18 18 18 18 18 18 18 18 18 18 19 19 20 20 20 20 20 20 19 20 20 21 22 22 23 24 24 25 26 26 26 26 26 26 25 24 24 24 24 25 25
18 18 17 17 18 17 17 17 17 18 17 17 18 18 19 19 20 20 19 20 20 20 21 21 21 21 21 22 23 23 24 24 25 25 25 25 25 24 23 23 23 23 23 23
17 17 16 17 17 17 17 17 17 17 17 17 18 18 18 19 19 19 19 19 20 20 21 21 21 21 21 22 22 23 23 24 24 25 24 24 23 23 22 22 22 22 22 23
17 16 16 17 17 17 17 17 17 17 17 17 17 17 18 18 19 19 19 19 19 20 20 20 20 20 20 20 21 22 22 22 22 22 22 22 22 22 21 21 21 21 20 21
17 17 17 17 17 17 17 17 17 18 18 17 17 17 17 18 18 18 18 19 19 19 19 20 20 20 20 20 20 20 20 20 20 20 20 20 20 20 19 19 19 19 20 20
18 18 18 18 18 17 18 18 18 18 18 17 17 17 17 17 17 18 18 18 18 18 19 19 20 19 19 19 19 19 19 19 19 19 18 18 18 18 18 19 19 19 19 20
18 18 18 18 17 17 17 17 18 18 17 17 18 18 18 18 18 18 18 18 18 18 19 19 19 18 18 17 17 17 17 16 16 16 16 17 17 17 18 18 18 19 19 19
18 18 17 17 17 17 17 17 17 17 17 17 17 17 17 17 17 17 17 17 17 17 17 17 17 17 17 16 16 15 15 15 16 16 15 16 16 16 17 17 17 17 18 18
Wind_Direction
264 264 262 262 263 262 262 262 262 263 262 262 262 260 258 258 257 256 255 253 251 250 249 250 250 249 249 249 249 250 250 250 251 252 252 252 252 253 253 254 255 255 256 256
263 263 263 262 260 261 261 263 263 263 262 261 259 258 257 257 258 257 256 254 253 252 251 251 251 251 249 249 250 250 250 251 252 252 253 252 252 252 253 254 255 255 257 258
264 264 265 262 261 262 264 264 264 265 265 263 259 258 257 257 257 257 256 255 255 252 251 251 251 251 249 250 250 250 250 251 253 254 254 253 253 253 253 253 254 256 257 259
267 265 265 267 264 264 264 263 264 264 264 263 260 257 257 258 258 257 256 256 255 252 252 252 252 253 250 250 251 252 252 253 254 254 255 254 254 254 254 255 256 258 259 260
268 269 269 266 265 266 268 267 266 266 265 263 261 256 257 258 259 258 257 257 255 253 253 252 253 253 251 250 251 252 253 254 254 255 255 254 254 255 255 255 257 258 259 260
267 270 272 270 268 269 271 270 268 268 267 265 262 259 258 258 258 257 257 257 256 254 253 252 252 253 252 251 251 253 254 254 255 256 256 255 255 255 256 256 258 260 259 260
268 271 273 271 270 271 272 274 271 272 271 267 264 261 260 258 258 258 258 257 256 254 253 253 253 252 253 251 253 255 255 254 254 255 255 256 255 255 255 257 260 260 260 260
268 271 273 270 269 269 273 274 274 272 272 269 264 260 260 260 259 259 258 256 256 255 255 253 253 253 253 253 254 255 255 255 254 255 256 255 254 255 256 259 260 261 260 261
268 271 273 270 268 268 270 273 273 272 272 271 265 261 261 262 262 260 257 256 256 257 256 255 255 255 254 254 255 255 256 256 257 257 257 256 256 256 257 259 260 261 262 262
268 269 270 269 267 267 268 270 273 274 274 272 268 263 262 263 264 262 259 257 257 257 257 256 257 256 254 254 256 257 257 257 256 256 257 258 257 257 258 259 261 262 262 263
272 271 269 267 267 267 269 269 272 274 275 274 269 263 261 262 264 264 261 259 258 258 257 257 258 256 255 255 256 257 257 257 257 257 259 259 259 259 258 259 261 262 263 264
270 271 271 269 267 268 271 273 274 274 275 273 268 263 262 263 264 263 261 259 258 259 258 258 257 257 256 257 257 257 257 257 258 258 259 260 260 259 258 258 260 262 264 264
269 270 270 268 266 268 272 275 275 274 275 274 270 265 262 262 262 261 260 259 258 257 256 256 255 256 256 257 258 258 258 258 258 259 260 261 260 259 259 260 261 263 264 265
270 271 269 267 265 268 272 274 273 273 274 273 270 267 264 262 261 260 260 258 257 256 255 256 255 255 256 257 258 258 259 259 259 259 260 261 261 260 260 261 262 262 264 266
270 269 268 267 267 270 273 273 272 272 272 270 267 265 263 261 261 261 261 259 257 256 258 258 256 256 256 257 256 256 258 259 259 259 261 262 262 261 261 262 263 263 264 264
271 269 268 268 269 271 273 272 273 272 269 267 264 262 262 261 260 261 261 261 260 259 260 260 259 258 259 259 256 256 258 260 260 260 262 263 263 262 262 263 264 265 264 264
271 270 269 267 268 270 272 273 272 270 268 266 264 262 262 262 260 258 259 261 262 261 261 261 260 259 259 258 258 258 258 260 261 262 264 264 263 262 263 264 265 265 264 264
275 274 273 272 271 272 272 271 269 268 268 267 265 263 262 262 259 257 259 261 262 263 264 263 262 261 260 258 258 259 260 261 262 263 264 264 263 263 264 266 267 265 263 263
277 276 275 274 274 273 271 270 269 268 268 267 267 265 263 261 260 260 262 262 262 262 264 264 263 262 262 261 260 261 261 262 263 264 264 263 263 264 266 268 267 265 264 264
279 278 277 275 273 271 270 270 269 268 269 268 267 265 264 261 261 263 264 263 262 264 266 266 265 264 264 263 262 262 263 264 264 265 264 263 264 266 267 269 268 266 265 264
280 278 277 274 272 271 270 269 270 271 271 269 269 267 265 263 261 260 261 262 263 266 267 267 266 267 267 266 265 264 265 266 265 265 264 263 263 264 266 268 267 266 265 264
280 278 275 272 271 271 271 270 270 271 272 272 271 268 265 263 261 260 262 263 264 266 267 267 268 268 268 268 268 267 267 267 266 266 264 263 262 263 265 266 266 265 264 264
280 279 277 275 275 274 273 272 272 272 274 275 272 269 265 263 262 263 263 264 265 265 265 267 269 270 269 269 267 266 267 268 267 265 263 261 261 262 263 263 263 262 262 263
279 279 279 278 277 275 273 272 272 273 274 273 270 268 266 265 264 264 266 267 267 267 268 269 271 271 269 268 267 267 267 268 267 264 261 260 260 261 261 260 261 261 262 262
278 278 278 279 278 275 272 271 271 271 271 271 269 268 267 267 268 268 269 270 270 269 270 272 273 271 269 268 267 267 266 266 264 262 259 258 259 259 259 260 260 261 261 261
278 278 278 279 278 276 274 271 269 268 268 267 267 268 268 270 271 271 272 271 271 272 272 272 271 268 267 267 267 266 265 264 262 259 258 258 259 260 261 262 261 261 262 262
277 276 278 278 278 277 275 272 269 267 266 266 267 268 269 272 273 274 273 273 273 272 272 270 268 266 265 265 265 265 264 264 262 260 259 259 259 260 261 262 263 263 264 264
Height
5562 5562 5562 5562 5563 5563 5563 5563 5563 5565 5566 5568 5567 5567 5567 5568 5569 5571 5572 5573 5574 5576 5577 5579 5580 5582 5584 5586 5588 5589 5591 5593 5595 5596 5598 5600 5602 5605 5608 5610 5612 5614 5616 5618
5554 5554 5553 5554 5555 5555 5555 5555 5555 5556 5558 5559 5558 5558 5559 5560 5561 5563 5564 5565 5566 5567 5569 5570 5572 5573 5575 5577 5578 5580 5582 5583 5585 5587 5589 5590 5593 5595 5598 5600 5602 5604 5606 5607
5545 5546 5544 5546 5548 5547 5547 5547 5548 5548 5550 5549 5549 5550 5551 5552 5553 5554 5555 5556 5557 5558 5560 5561 5563 5564 5566 5568 5570 5571 5573 5574 5576 5578 5579 5581 5583 5586 5588 5590 5592 5594 5596 5597
5537 5537 5537 5542 5540 5539 5538 5539 5539 5539 5540 5540 5540 5541 5542 5543 5544 5545 5546 5547 5548 5549 5550 5552 5554 5555 5557 5559 5560 5562 5564 5565 5567 5569 5571 5572 5574 5576 5578 5580 5582 5583 5585 5586
5529 5528 5529 5533 5533 5531 5530 5531 5532 5531 5531 5532 5531 5532 5533 5534 5535 5536 5537 5537 5539 5540 5541 5543 5545 5546 5548 5550 5551 5553 5555 5557 5558 5560 5562 5563 5565 5567 5568 5570 5572 5573 5574 5575
5522 5521 5521 5526 5525 5523 5522 5523 5525 5523 5523 5523 5522 5524 5526 5526 5526 5526 5527 5528 5529 5531 5532 5534 5535 5537 5538 5540 5542 5544 5546 5547 5549 5551 5552 5554 5556 5557 5559 5560 5561 5562 5564 5565
5515 5513 5513 5517 5517 5515 5516 5516 5516 5515 5514 5514 5514 5515 5516 5516 5516 5517 5518 5519 5520 5521 5523 5525 5526 5528 5529 5531 5533 5535 5536 5538 5540 5541 5543 5544 5546 5547 5549 5550 5552 5553 5554 5555
5507 5506 5509 5509 5508 5508 5507 5507 5506 5506 5506 5506 5506 5506 5506 5507 5507 5508 5509 5510 5511 5513 5514 5516 5517 5519 5520 5522 5524 5525 5527 5528 5530 5532 5533 5535 5536 5538 5539 5540 5541 5542 5543 5544
5501 5502 5501 5500 5500 5500 5499 5499 5498 5498 5498 5498 5498 5498 5498 5499 5499 5500 5500 5501 5503 5504 5505 5507 5509 5510 5512 5513 5515 5516 5518 5519 5521 5522 5524 5525 5526 5528 5529 5530 5531 5532 5533 5533
5492 5493 5493 5492 5492 5492 5491 5491 5490 5490 5490 5490 5490 5490 5490 5491 5491 5491 5492 5493 5494 5495 5497 5499 5500 5502 5503 5505 5506 5508 5509 5510 5511 5513 5514 5515 5516 5518 5519 5520 5521 5522 5522 5523
5484 5485 5484 5484 5484 5484 5483 5483 5482 5482 5482 5481 5481 5482 5482 5483 5483 5483 5484 5485 5486 5487 5488 5490 5492 5493 5494 5496 5497 5499 5500 5501 5502 5503 5505 5505 5506 5507 5509 5510 5511 5512 5513 5513
5477 5477 5476 5477 5477 5476 5476 5475 5475 5474 5474 5474 5473 5474 5474 5475 5475 5475 5476 5476 5477 5478 5480 5481 5483 5484 5485 5487 5488 5489 5491 5492 5493 5494 5495 5496 5497 5498 5498 5500 5501 5502 5502 5503
5469 5469 5469 5468 5469 5468 5468 5468 5467 5467 5466 5466 5466 5466 5466 5467 5467 5468 5468 5469 5469 5470 5472 5473 5474 5476 5477 5478 5479 5480 5482 5483 5484 5485 5486 5487 5487 5489 5490 5491 5491 5492 5492 5493
5462 5462 5461 5461 5461 5461 5461 5461 5460 5460 5459 5459 5459 5459 5459 5459 5460 5460 5461 5461 5462 5463 5464 5465 5466 5468 5469 5470 5471 5472 5473 5474 5475 5476 5477 5478 5478 5479 5480 5482 5483 5483 5483 5483
5455 5454 5454 5454 5454 5454 5454 5453 5453 5452 5452 5451 5451 5451 5452 5452 5453 5454 5454 5454 5455 5456 5457 5458 5459 5460 5460 5461 5462 5463 5464 5465 5466 5467 5468 5469 5469 5470 5471 5472 5473 5473 5474 5474
5448 5447 5447 5447 5447 5447 5446 5446 5446 5445 5444 5444 5444 5445 5445 5445 5446 5447 5447 5448 5449 5449 5450 5450 5451 5452 5453 5453 5454 5455 5456 5457 5458 5459 5460 5460 5461 5461 5462 5463 5463 5463 5464 5464
5441 5441 5440 5440 5440 5440 5439 5439 5438 5438 5437 5437 5438 5438 5439 5439 5440 5440 5441 5441 5442 5442 5443 5443 5444 5445 5445 5446 5446 5447 5448 5449 5450 5451 5451 5451 5452 5452 5453 5453 5454 5454 5455 5455
5435 5435 5434 5434 5433 5433 5432 5432 5431 5431 5431 5431 5431 5432 5432 5432 5433 5434 5434 5435 5435 5435 5435 5436 5436 5437 5437 5438 5439 5439 5440 5441 5441 5442 5442 5443 5443 5443 5444 5444 5445 5445 5445 5446
5429 5429 5428 5427 5427 5426 5426 5425 5425 5425 5425 5425 5425 5425 5425 5426 5426 5427 5427 5428 5428 5428 5429 5429 5429 5429 5430 5430 5431 5431 5432 5432 5433 5433 5433 5434 5434 5435 5435 5436 5436 5436 5436 5437
5423 5423 5422 5421 5420 5420 5419 5419 5419 5419 5419 5419 5419 5419 5419 5419 5420 5420 5420 5421 5421 5422 5422 5422 5422 5422 5422 5422 5423 5423 5423 5424 5424 5424 5425 5425 5426 5426 5427 5427 5427 5427 5428 5428
5418 5417 5416 5415 5415 5414 5414 5414 5414 5414 5413 5413 5413 5413 5413 5413 5413 5414 5414 5414 5414 5414 5415 5415 5415 5415 5415 5415 5415 5415 5415 5415 5415 5416 5416 5417 5417 5418 5418 5419 5419 5419 5419 5420
5412 5411 5410 5410 5409 5409 5409 5408 5408 5408 5408 5407 5407 5407 5407 5407 5407 5407 5407 5408 5408 5408 5408 5408 5408 5408 5407 5407 5407 5407 5407 5407 5407 5407 5408 5408 5409 5410 5410 5411 5411 5411 5412 5412
5406 5406 5405 5404 5404 5404 5403 5403 5403 5402 5402 5401 5401 5401 5401 5401 5401 5401 5401 5401 5401 5401 5401 5401 5400 5400 5400 5400 5400 5400 5399 5399 5399 5399 5400 5401 5401 5402 5403 5403 5403 5404 5404 5405
5401 5400 5400 5399 5398 5398 5398 5398 5397 5397 5396 5396 5395 5395 5395 5395 5395 5395 5395 5395 5394 5394 5394 5394 5393 5393 5393 5393 5393 5392 5392 5392 5392 5392 5393 5394 5394 5395 5396 5396 5396 5397 5397 5398
5395 5394 5394 5393 5393 5392 5392 5392 5391 5391 5390 5390 5390 5389 5389 5389 5389 5389 5388 5388 5388 5388 5387 5387 5386 5386 5386 5386 5386 5386 5386 5386 5386 5386 5386 5387 5388 5388 5389 5390 5390 5390 5391 5391
5389 5388 5388 5387 5387 5386 5386 5385 5385 5385 5384 5384 5384 5384 5383 5383 5383 5382 5382 5382 5381 5381 5381 5380 5380 5380 5380 5380 5380 5379 5380 5380 5380 5380 5381 5381 5382 5382 5383 5383 5383 5384 5384 5384
5383 5382 5382 5381 5380 5380 5379 5379 5379 5378 5378 5378 5378 5378 5377 5377 5376 5376 5376 5376 5375 5375 5374 5374 5374 5374 5374 5374 5374 5374 5374 5374 5374 5375 5375 5376 5376 5376 5377 5377 5377 5377 5377 5378